TimeCEST,TemperatureF,Dew PointF,Humidity,Sea Level PressureIn,VisibilityMPH,Wind Direction,Wind SpeedMPH,Gust SpeedMPH,PrecipitationIn,Events,Conditions,WindDirDegrees,DateUTC
12:00 AM,50.0,44.6,82,30.09,-9999.0,East,1.2,-,N/A,,Clear,80,2013-06-14 22:00:00
1:00 AM,46.4,44.6,93,30.09,-9999.0,ESE,2.3,-,N/A,,Clear,120,2013-06-14 23:00:00
2:00 AM,46.4,44.6,93,30.06,-9999.0,ESE,2.3,-,N/A,,Clear,110,2013-06-15 00:00:00
3:00 AM,46.4,44.6,93,30.06,-9999.0,Calm,Calm,-,N/A,,Clear,0,2013-06-15 01:00:00
4:00 AM,46.4,44.6,93,30.06,-9999.0,Calm,Calm,-,N/A,,Clear,0,2013-06-15 02:00:00
5:00 AM,46.4,44.6,93,30.04,6.2,Calm,Calm,-,N/A,,Partly Cloudy,0,2013-06-15 03:00:00
6:00 AM,46.4,44.6,93,30.04,6.2,Calm,Calm,-,N/A,,Scattered Clouds,0,2013-06-15 04:00:00
7:00 AM,55.4,48.2,77,30.04,-9999.0,Variable,1.2,-,N/A,,Clear,0,2013-06-15 05:00:00
8:00 AM,59.0,48.2,67,30.04,6.2,Variable,2.3,-,N/A,,Mostly Cloudy,0,2013-06-15 06:00:00
8:30 AM,57.2,48.2,72,30.04,6.2,East,5.8,-,N/A,,Mostly Cloudy,100,2013-06-15 06:30:00
9:00 AM,57.2,48.2,72,30.04,6.2,ESE,5.8,-,N/A,,Mostly Cloudy,110,2013-06-15 07:00:00
9:30 AM,57.2,48.2,72,30.04,6.2,ESE,5.8,-,N/A,,Mostly Cloudy,120,2013-06-15 07:30:00
10:00 AM,60.8,50.0,68,30.04,6.2,East,8.1,-,N/A,,Scattered Clouds,100,2013-06-15 08:00:00
10:30 AM,62.6,50.0,63,30.01,6.2,SSE,4.6,-,N/A,,Scattered Clouds,150,2013-06-15 08:30:00
11:00 AM,62.6,51.8,68,30.01,6.2,SSW,5.8,-,N/A,,Scattered Clouds,210,2013-06-15 09:00:00
11:30 AM,64.4,51.8,64,30.01,6.2,Variable,4.6,-,N/A,,Scattered Clouds,0,2013-06-15 09:30:00
12:00 PM,66.2,50.0,56,30.01,6.2,Variable,4.6,-,N/A,,Scattered Clouds,0,2013-06-15 10:00:00
12:30 PM,66.2,50.0,56,30.01,6.2,Variable,5.8,-,N/A,,Scattered Clouds,0,2013-06-15 10:30:00
1:00 PM,68.0,51.8,56,30.01,6.2,SSW,10.4,-,N/A,,Scattered Clouds,200,2013-06-15 11:00:00
1:30 PM,66.2,51.8,60,30.01,6.2,Variable,5.8,-,N/A,,Mostly Cloudy,0,2013-06-15 11:30:00
2:00 PM,68.0,51.8,56,30.01,6.2,WSW,6.9,-,N/A,,Mostly Cloudy,240,2013-06-15 12:00:00
2:30 PM,68.0,50.0,52,29.98,6.2,SW,5.8,-,N/A,,Mostly Cloudy,230,2013-06-15 12:30:00
3:00 PM,68.0,50.0,52,29.98,-9999.0,SW,8.1,-,N/A,,Clear,230,2013-06-15 13:00:00
3:30 PM,69.8,50.0,49,29.98,6.2,WSW,9.2,21.9,N/A,,Scattered Clouds,240,2013-06-15 13:30:00
4:00 PM,68.0,50.0,52,29.98,-9999.0,WSW,9.2,-,N/A,,Clear,240,2013-06-15 14:00:00
4:30 PM,69.8,48.2,46,29.98,-9999.0,WSW,11.5,-,N/A,,Clear,250,2013-06-15 14:30:00
5:00 PM,69.8,50.0,49,29.98,-9999.0,West,10.4,-,N/A,,Clear,260,2013-06-15 15:00:00
5:30 PM,68.0,50.0,52,29.98,-9999.0,West,10.4,-,N/A,,Clear,260,2013-06-15 15:30:00
6:00 PM,68.0,50.0,52,29.98,-9999.0,WSW,10.4,-,N/A,,Clear,250,2013-06-15 16:00:00
6:30 PM,68.0,50.0,52,29.98,6.2,West,10.4,-,N/A,,Partly Cloudy,260,2013-06-15 16:30:00
7:00 PM,66.2,50.0,56,29.98,-9999.0,West,9.2,-,N/A,,Clear,260,2013-06-15 17:00:00
7:30 PM,66.2,50.0,56,29.98,-9999.0,WSW,6.9,-,N/A,,Clear,250,2013-06-15 17:30:00
8:00 PM,66.2,50.0,56,29.98,-9999.0,SW,4.6,-,N/A,,Clear,230,2013-06-15 18:00:00
8:30 PM,64.4,50.0,59,29.98,-9999.0,WSW,3.5,-,N/A,,Clear,240,2013-06-15 18:30:00
9:00 PM,62.6,51.8,68,29.98,-9999.0,Variable,2.3,-,N/A,,Clear,0,2013-06-15 19:00:00
10:00 PM,60.8,51.8,72,30.01,-9999.0,Variable,2.3,-,N/A,,Clear,0,2013-06-15 20:00:00
11:00 PM,60.8,50.0,68,30.01,-9999.0,Variable,2.3,-,N/A,,Clear,0,2013-06-15 21:00:00